| time (UTC) | temp C | wind direction | speed KPH | gust KPH | rain 1hr cm | rain 24hr cm | rain mn cm | humidity % | barometer mb |
| 20260505224149 | 17 | 54 | 1.6 | 3.2 | 0.00 | 1.09 | 1.09 | 97 | 1007.0 |
| 20260505223646 | 17 | 26 | 1.6 | 1.6 | 0.13 | 1.09 | 1.09 | 97 | 1007.2 |
| 20260505223142 | 17 | 11 | 1.6 | 1.6 | 0.13 | 1.09 | 1.09 | 97 | 1007.2 |
| 20260505222638 | 17 | 153 | 3.2 | 4.8 | 0.00 | 1.07 | 1.07 | 97 | 1007.4 |
| 20260505222135 | 17 | 346 | 3.2 | 3.2 | 0.00 | 1.07 | 1.07 | 97 | 1007.4 |
| 20260505221632 | 17 | 12 | 3.2 | 4.8 | 0.18 | 1.07 | 1.07 | 97 | 1007.5 |
| 20260505221128 | 17 | 223 | 3.2 | 9.7 | 0.18 | 1.07 | 1.07 | 97 | 1007.7 |
| 20260505220626 | 17 | 236 | 4.8 | 6.4 | 0.13 | 1.04 | 1.04 | 97 | 1007.5 |
| 20260505220124 | 17 | 317 | 3.2 | 3.2 | 0.13 | 1.04 | 1.04 | 97 | 1007.4 |
| 20260505215621 | 17 | 38 | 3.2 | 4.8 | 0.00 | 1.02 | 1.02 | 97 | 1007.7 |
| 20260505215119 | 17 | 330 | 1.6 | 3.2 | 0.00 | 1.02 | 1.02 | 97 | 1007.6 |
| 20260505214617 | 17 | 47 | 3.2 | 4.8 | 0.18 | 1.02 | 1.02 | 97 | 1007.5 |
| 20260505214114 | 17 | 34 | 1.6 | 1.6 | 0.18 | 1.02 | 1.02 | 97 | 1007.7 |
| 20260505213611 | 17 | 299 | 3.2 | 4.8 | 0.00 | 0.99 | 0.99 | 97 | 1007.5 |
| 20260505213108 | 17 | 339 | 3.2 | 4.8 | 0.13 | 0.99 | 0.99 | 97 | 1007.7 |
| 20260505212604 | 17 | 57 | 0.0 | 0.0 | 0.13 | 0.99 | 0.99 | 97 | 1007.6 |
| 20260505212102 | 17 | 336 | 4.8 | 4.8 | 0.18 | 0.97 | 0.97 | 97 | 1007.5 |
| 20260505211558 | 17 | 68 | 1.6 | 1.6 | 0.18 | 0.97 | 0.97 | 96 | 1007.6 |
| 20260505211055 | 17 | 253 | 6.4 | 11.3 | 0.18 | 0.94 | 0.94 | 96 | 1007.6 |
| 20260505210551 | 17 | 76 | 4.8 | 4.8 | 0.18 | 0.94 | 0.94 | 96 | 1008.0 |
| 20260505210049 | 17 | 278 | 4.8 | 12.9 | 0.13 | 0.91 | 0.91 | 96 | 1007.7 |
| 20260505205547 | 17 | 42 | 4.8 | 6.4 | 0.13 | 0.91 | 0.91 | 95 | 1007.8 |
| 20260505205044 | 17 | 18 | 3.2 | 6.4 | 0.00 | 0.89 | 0.89 | 95 | 1007.8 |
| 20260505204541 | 17 | 332 | 3.2 | 3.2 | 0.00 | 0.89 | 0.89 | 95 | 1007.6 |
| 20260505204038 | 17 | 128 | 1.6 | 3.2 | 0.00 | 0.89 | 0.89 | 94 | 1007.7 |
| 20260505203535 | 17 | 225 | 6.4 | 9.7 | 0.00 | 0.89 | 0.89 | 94 | 1007.6 |
| 20260505203032 | 17 | 14 | 3.2 | 3.2 | 0.00 | 0.89 | 0.89 | 94 | 1007.6 |
| 20260505202528 | 17 | 289 | 4.8 | 6.4 | 0.00 | 0.89 | 0.89 | 94 | 1007.7 |
| 20260505202024 | 17 | 114 | 1.6 | 3.2 | 0.00 | 0.89 | 0.89 | 94 | 1007.9 |
| 20260505201521 | 17 | 70 | 3.2 | 4.8 | 0.00 | 0.89 | 0.89 | 94 | 1007.8 |
| 20260505201019 | 17 | 264 | 3.2 | 11.3 | 0.00 | 0.89 | 0.89 | 95 | 1007.5 |
| 20260505200517 | 17 | 256 | 4.8 | 6.4 | 0.00 | 0.89 | 0.89 | 95 | 1007.8 |
| 20260505200013 | 17 | 296 | 3.2 | 4.8 | 0.00 | 0.89 | 0.89 | 94 | 1007.7 |
| 20260505195509 | 18 | 66 | 1.6 | 1.6 | 0.18 | 0.89 | 0.89 | 94 | 1007.6 |
| 20260505195007 | 18 | 147 | 1.6 | 4.8 | 0.30 | 0.89 | 0.89 | 93 | 1007.7 |
| 20260505194504 | 18 | 71 | 3.2 | 3.2 | 0.30 | 0.86 | 0.86 | 93 | 1007.7 |
| 20260505194004 | 18 | 226 | 1.6 | 3.2 | 0.18 | 0.84 | 0.84 | 93 | 1007.6 |
| 20260505193502 | 18 | 4 | 3.2 | 4.8 | 0.00 | 0.81 | 0.81 | 92 | 1007.6 |
| 20260505192959 | 18 | 1 | 8.0 | 9.7 | 0.00 | 0.81 | 0.81 | 91 | 1007.6 |
| 20260505192458 | 18 | 29 | 3.2 | 3.2 | 0.00 | 0.81 | 0.81 | 91 | 1007.9 |
| 20260505191954 | 18 | 69 | 1.6 | 1.6 | 0.00 | 0.81 | 0.81 | 91 | 1007.8 |
| 20260505191453 | 18 | 336 | 4.8 | 6.4 | 0.00 | 0.81 | 0.81 | 91 | 1008.1 |
| 20260505190950 | 18 | 35 | 0.0 | 1.6 | 0.00 | 0.81 | 0.81 | 91 | 1007.7 |
| 20260505190445 | 18 | 77 | 3.2 | 3.2 | 0.00 | 0.81 | 0.81 | 92 | 1008.0 |
| 20260505185940 | 18 | 152 | 3.2 | 3.2 | 0.00 | 0.81 | 0.81 | 92 | 1008.1 |
| 20260505185438 | 18 | 189 | 3.2 | 3.2 | 0.00 | 0.81 | 0.81 | 93 | 1008.3 |
| 20260505184934 | 17 | 98 | 3.2 | 4.8 | 0.00 | 0.81 | 0.81 | 95 | 1008.0 |
| 20260505184431 | 17 | 35 | 0.0 | 1.6 | 0.00 | 0.81 | 0.81 | 95 | 1008.1 |
| 20260505183928 | 17 | 74 | 0.0 | 1.6 | 0.00 | 0.81 | 0.81 | 95 | 1008.1 |
| 20260505183425 | 17 | 88 | 3.2 | 3.2 | 0.00 | 0.81 | 0.81 | 95 | 1008.4 |
| 20260505182921 | 17 | 41 | 1.6 | 1.6 | 0.00 | 0.81 | 0.81 | 95 | 1008.5 |
| 20260505182418 | 17 | 260 | 3.2 | 4.8 | 0.00 | 0.81 | 0.81 | 95 | 1008.7 |
| 20260505181915 | 17 | 64 | 1.6 | 1.6 | 0.13 | 0.81 | 0.81 | 94 | 1008.9 |
| 20260505181412 | 17 | 53 | 3.2 | 3.2 | 0.13 | 0.81 | 0.81 | 94 | 1008.9 |
| 20260505180909 | 17 | 306 | 3.2 | 3.2 | 0.00 | 0.79 | 0.79 | 94 | 1009.1 |
| 20260505180405 | 17 | 24 | 0.0 | 1.6 | 0.18 | 0.79 | 0.79 | 94 | 1009.1 |
| 20260505175902 | 17 | 43 | 1.6 | 1.6 | 0.30 | 0.79 | 0.79 | 94 | 1009.0 |
| 20260505175358 | 17 | 167 | 0.0 | 0.0 | 0.43 | 0.76 | 0.76 | 94 | 1009.2 |
| 20260505174854 | 17 | 352 | 0.0 | 1.6 | 0.30 | 0.74 | 0.74 | 93 | 1009.2 |
| 20260505174352 | 17 | 68 | 1.6 | 1.6 | 0.30 | 0.71 | 0.71 | 93 | 1009.1 |
| 20260505173848 | 17 | 58 | 1.6 | 3.2 | 0.18 | 0.69 | 0.69 | 92 | 1009.0 |
| 20260505173345 | 17 | 144 | 1.6 | 1.6 | 0.00 | 0.66 | 0.66 | 91 | 1009.5 |
| 20260505172842 | 17 | 77 | 1.6 | 1.6 | 0.00 | 0.66 | 0.66 | 91 | 1009.2 |
| 20260505172340 | 17 | 58 | 0.0 | 1.6 | 0.00 | 0.66 | 0.66 | 91 | 1009.2 |
| 20260505171839 | 17 | 70 | 3.2 | 3.2 | 0.00 | 0.66 | 0.66 | 90 | 1009.5 |
| 20260505171336 | 17 | 36 | 1.6 | 1.6 | 0.00 | 0.66 | 0.66 | 90 | 1009.3 |
| 20260505170833 | 17 | 39 | 1.6 | 1.6 | 0.00 | 0.66 | 0.66 | 89 | 1009.3 |
| 20260505170329 | 17 | 53 | 0.0 | 1.6 | 0.00 | 0.66 | 0.66 | 90 | 1009.4 |
| 20260505165825 | 17 | 48 | 0.0 | 1.6 | 0.00 | 0.66 | 0.66 | 90 | 1009.5 |
| 20260505165321 | 17 | 314 | 1.6 | 3.2 | 0.00 | 0.66 | 0.66 | 90 | 1009.5 |
| 20260505164816 | 17 | 51 | 1.6 | 3.2 | 0.00 | 0.66 | 0.66 | 91 | 1009.5 |
| 20260505164314 | 17 | 32 | 1.6 | 1.6 | 0.00 | 0.66 | 0.66 | 91 | 1009.7 |
| 20260505163812 | 17 | 29 | 1.6 | 3.2 | 0.00 | 0.66 | 0.66 | 91 | 1009.5 |
| 20260505163310 | 17 | 350 | 1.6 | 3.2 | 0.00 | 0.66 | 0.66 | 91 | 1009.5 |
| 20260505162808 | 17 | 2 | 0.0 | 1.6 | 0.00 | 0.66 | 0.66 | 91 | 1009.7 |
| 20260505162306 | 17 | 54 | 0.0 | 1.6 | 0.00 | 0.66 | 0.66 | 91 | 1010.0 |
| 20260505161801 | 17 | 65 | 1.6 | 1.6 | 0.00 | 0.66 | 0.66 | 91 | 1009.7 |
| 20260505161258 | 17 | 163 | 4.8 | 4.8 | 0.00 | 0.66 | 0.66 | 90 | 1009.8 |
| 20260505160756 | 17 | 260 | 3.2 | 6.4 | 0.00 | 0.66 | 0.66 | 90 | 1009.6 |
| 20260505160253 | 17 | 54 | 1.6 | 1.6 | 0.00 | 0.66 | 0.66 | 90 | 1009.8 |
| 20260505153232 | 16 | 96 | 1.6 | 1.6 | 0.00 | 0.66 | 0.66 | 92 | 1009.5 |
| 20260505152730 | 16 | 40 | 1.6 | 3.2 | 0.00 | 0.66 | 0.66 | 93 | 1009.7 |
| 20260505152226 | 16 | 64 | 0.0 | 0.0 | 0.00 | 0.66 | 0.66 | 94 | 1009.5 |
| 20260505151726 | 16 | 70 | 1.6 | 3.2 | 0.00 | 0.66 | 0.66 | 94 | 1009.5 |
| 20260505151224 | 15 | 329 | 1.6 | 3.2 | 0.00 | 0.66 | 0.66 | 94 | 1009.1 |
| 20260505150720 | 15 | 77 | 3.2 | 4.8 | 0.00 | 0.66 | 0.66 | 95 | 1009.4 |
| 20260505150218 | 15 | 260 | 8.0 | 11.3 | 0.00 | 0.66 | 0.66 | 95 | 1009.2 |
| 20260505140651 | 15 | 47 | 0.0 | 0.0 | 0.61 | 0.48 | 0.48 | 93 | 1009.9 |
| 20260505140148 | 15 | 115 | 3.2 | 4.8 | 0.61 | 0.43 | 0.43 | 93 | 1010.2 |
| 20260505130111 | 17 | 18 | 1.6 | 1.6 | 0.00 | 0.00 | 0.00 | 70 | 1009.4 |
| 20260505124601 | 17 | 82 | 3.2 | 6.4 | 0.00 | 0.00 | 0.00 | 70 | 1009.4 |
| 20260505124057 | 17 | 59 | 1.6 | 3.2 | 0.00 | 0.00 | 0.00 | 71 | 1009.6 |
| 20260505123554 | 17 | 29 | 1.6 | 1.6 | 0.00 | 0.00 | 0.00 | 71 | 1009.5 |
| 20260505123050 | 17 | 105 | 3.2 | 4.8 | 0.00 | 0.00 | 0.00 | 71 | 1009.2 |
| 20260505122547 | 17 | 197 | 3.2 | 3.2 | 0.00 | 0.00 | 0.00 | 71 | 1009.3 |
| 20260505122044 | 17 | 54 | 1.6 | 1.6 | 0.00 | 0.00 | 0.00 | 72 | 1009.0 |
| 20260505121540 | 17 | 133 | 3.2 | 3.2 | 0.00 | 0.00 | 0.00 | 72 | 1009.2 |
| 20260505121038 | 17 | 66 | 0.0 | 1.6 | 0.00 | 0.00 | 0.00 | 72 | 1009.1 |
| 20260505120534 | 17 | 79 | 1.6 | 1.6 | 0.00 | 0.00 | 0.00 | 72 | 1009.0 |
| 20260505120029 | 16 | 81 | 1.6 | 1.6 | 0.00 | 0.00 | 0.00 | 72 | 1008.9 |
| 20260505115524 | 16 | 4 | 1.6 | 3.2 | 0.00 | 0.00 | 0.00 | 72 | 1008.9 |
| 20260505115022 | 16 | 257 | 3.2 | 3.2 | 0.00 | 0.00 | 0.00 | 72 | 1008.7 |
| 20260505114519 | 16 | 68 | 1.6 | 1.6 | 0.00 | 0.00 | 0.00 | 72 | 1008.8 |
| 20260505114015 | 16 | 343 | 1.6 | 3.2 | 0.00 | 0.00 | 0.00 | 72 | 1008.8 |
| 20260505113512 | 16 | 12 | 0.0 | 1.6 | 0.00 | 0.00 | 0.00 | 72 | 1008.8 |
| 20260505113009 | 16 | 44 | 0.0 | 1.6 | 0.00 | 0.00 | 0.00 | 72 | 1008.5 |
| 20260505112505 | 16 | 232 | 3.2 | 3.2 | 0.00 | 0.00 | 0.00 | 72 | 1008.6 |
| 20260505112003 | 16 | 51 | 0.0 | 0.0 | 0.00 | 0.00 | 0.00 | 72 | 1008.6 |
| 20260505111502 | 16 | 55 | 0.0 | 0.0 | 0.00 | 0.00 | 0.00 | 72 | 1008.7 |
| 20260505110958 | 16 | 47 | 0.0 | 1.6 | 0.00 | 0.00 | 0.00 | 71 | 1008.4 |
| 20260505110455 | 16 | 60 | 0.0 | 0.0 | 0.00 | 0.00 | 0.00 | 71 | 1008.4 |
| 20260505101927 | 16 | 65 | 0.0 | 0.0 | 0.00 | 0.00 | 0.00 | 69 | 1008.5 |
| 20260505101426 | 17 | 52 | 0.0 | 0.0 | 0.00 | 0.00 | 0.00 | 69 | 1008.7 |
| 20260505100922 | 17 | 64 | 0.0 | 0.0 | 0.00 | 0.00 | 0.00 | 68 | 1008.6 |
| 20260505100420 | 17 | 65 | 0.0 | 0.0 | 0.00 | 0.00 | 0.00 | 68 | 1008.6 |
| 20260505095915 | 17 | 46 | 1.6 | 1.6 | 0.00 | 0.00 | 0.00 | 68 | 1008.7 |
| 20260505095412 | 17 | 46 | 0.0 | 0.0 | 0.00 | 0.00 | 0.00 | 68 | 1008.7 |
| 20260505094908 | 17 | 68 | 0.0 | 0.0 | 0.00 | 0.00 | 0.00 | 68 | 1008.8 |
| 20260505094406 | 17 | 7 | 0.0 | 1.6 | 0.00 | 0.00 | 0.00 | 67 | 1008.9 |
| 20260505093901 | 17 | 54 | 0.0 | 0.0 | 0.00 | 0.00 | 0.00 | 66 | 1008.9 |
| 20260505093359 | 17 | 59 | 0.0 | 0.0 | 0.00 | 0.00 | 0.00 | 66 | 1008.8 |
| 20260505092856 | 17 | 167 | 1.6 | 3.2 | 0.00 | 0.00 | 0.00 | 66 | 1008.9 |
| 20260505092354 | 17 | 66 | 0.0 | 0.0 | 0.00 | 0.00 | 0.00 | 65 | 1009.0 |
| 20260505091851 | 17 | 49 | 0.0 | 0.0 | 0.00 | 0.00 | 0.00 | 65 | 1008.9 |
| 20260505091349 | 17 | 66 | 0.0 | 1.6 | 0.00 | 0.00 | 0.00 | 65 | 1008.6 |
| 20260505090846 | 17 | 59 | 0.0 | 0.0 | 0.00 | 0.00 | 0.00 | 64 | 1008.6 |
| 20260505090345 | 17 | 45 | 1.6 | 1.6 | 0.00 | 0.00 | 0.00 | 64 | 1008.6 |
| 20260505085841 | 17 | 176 | 1.6 | 3.2 | 0.00 | 0.00 | 0.00 | 64 | 1008.5 |
| 20260505085339 | 17 | 93 | 0.0 | 1.6 | 0.00 | 0.00 | 0.00 | 64 | 1008.6 |
| 20260505084837 | 17 | 50 | 1.6 | 1.6 | 0.00 | 0.00 | 0.00 | 63 | 1008.5 |
| 20260505084335 | 17 | 41 | 0.0 | 1.6 | 0.00 | 0.00 | 0.00 | 63 | 1008.3 |
| 20260505083832 | 17 | 43 | 1.6 | 3.2 | 0.00 | 0.00 | 0.00 | 63 | 1008.5 |
| 20260505083330 | 17 | 44 | 0.0 | 0.0 | 0.00 | 0.00 | 0.00 | 63 | 1008.2 |
| 20260505082826 | 17 | 359 | 0.0 | 1.6 | 0.00 | 0.00 | 0.00 | 63 | 1008.1 |
| 20260505082322 | 17 | 65 | 0.0 | 1.6 | 0.00 | 0.00 | 0.00 | 63 | 1008.2 |
| 20260505081819 | 17 | 54 | 1.6 | 1.6 | 0.00 | 0.00 | 0.00 | 63 | 1008.3 |
| 20260505081316 | 17 | 252 | 3.2 | 9.7 | 0.00 | 0.00 | 0.00 | 63 | 1008.0 |
| 20260505080812 | 17 | 124 | 1.6 | 1.6 | 0.00 | 0.00 | 0.00 | 64 | 1008.3 |
| 20260505080308 | 17 | 25 | 1.6 | 1.6 | 0.00 | 0.00 | 0.00 | 64 | 1008.2 |
| 20260505075804 | 17 | 47 | 0.0 | 0.0 | 0.00 | 0.00 | 0.00 | 64 | 1008.5 |
| 20260505075304 | 17 | 45 | 0.0 | 1.6 | 0.00 | 0.00 | 0.00 | 63 | 1008.4 |
| 20260505074758 | 18 | 27 | 1.6 | 1.6 | 0.00 | 0.00 | 0.00 | 62 | 1008.5 |
| 20260505074256 | 18 | 90 | 0.0 | 0.0 | 0.00 | 0.00 | 0.00 | 62 | 1008.5 |
| 20260505073753 | 18 | 73 | 1.6 | 1.6 | 0.00 | 0.00 | 0.00 | 61 | 1008.4 |
| 20260505073251 | 18 | 32 | 1.6 | 3.2 | 0.00 | 0.00 | 0.00 | 61 | 1008.4 |
| 20260505072747 | 18 | 357 | 1.6 | 3.2 | 0.00 | 0.00 | 0.00 | 61 | 1008.3 |
| 20260505072243 | 18 | 358 | 3.2 | 4.8 | 0.00 | 0.00 | 0.00 | 61 | 1008.2 |
| 20260505071739 | 18 | 197 | 4.8 | 4.8 | 0.00 | 0.00 | 0.00 | 61 | 1008.1 |
| 20260505071236 | 18 | 50 | 1.6 | 1.6 | 0.00 | 0.00 | 0.00 | 61 | 1008.2 |
| 20260505070734 | 18 | 300 | 3.2 | 3.2 | 0.00 | 0.00 | 0.00 | 61 | 1008.3 |
| 20260505070230 | 18 | 0 | 3.2 | 4.8 | 0.00 | 0.00 | 0.00 | 61 | 1008.3 |
| 20260505065726 | 18 | 50 | 0.0 | 1.6 | 0.00 | 0.00 | 0.00 | 61 | 1008.3 |
| 20260505065223 | 18 | 16 | 3.2 | 3.2 | 0.00 | 0.00 | 0.00 | 61 | 1008.4 |
| 20260505064720 | 18 | 36 | 1.6 | 1.6 | 0.00 | 0.00 | 0.00 | 61 | 1008.5 |
| 20260505064218 | 18 | 69 | 1.6 | 1.6 | 0.00 | 0.00 | 0.00 | 62 | 1009.0 |
| 20260505063715 | 18 | 51 | 0.0 | 0.0 | 0.00 | 0.00 | 0.00 | 61 | 1008.9 |
| 20260505063211 | 18 | 255 | 4.8 | 4.8 | 0.00 | 0.00 | 0.00 | 61 | 1009.1 |
| 20260505062707 | 18 | 50 | 0.0 | 0.0 | 0.00 | 0.00 | 0.00 | 61 | 1009.3 |
| 20260505062205 | 18 | 16 | 1.6 | 3.2 | 0.00 | 0.00 | 0.00 | 61 | 1009.4 |
| 20260505061702 | 18 | 131 | 4.8 | 6.4 | 0.00 | 0.00 | 0.00 | 61 | 1009.3 |
| 20260505061200 | 18 | 189 | 3.2 | 3.2 | 0.00 | 0.00 | 0.00 | 60 | 1009.2 |
| 20260505060657 | 18 | 44 | 0.0 | 1.6 | 0.00 | 0.00 | 0.00 | 60 | 1009.4 |
| 20260505060154 | 18 | 32 | 0.0 | 1.6 | 0.00 | 0.00 | 0.00 | 60 | 1009.5 |
| 20260505055649 | 18 | 46 | 1.6 | 1.6 | 0.00 | 0.00 | 0.00 | 60 | 1009.3 |
| 20260505055146 | 18 | 73 | 0.0 | 1.6 | 0.00 | 0.00 | 0.00 | 60 | 1009.4 |
| 20260505054643 | 18 | 61 | 1.6 | 1.6 | 0.00 | 0.00 | 0.00 | 60 | 1009.6 |
| 20260505054141 | 18 | 66 | 0.0 | 0.0 | 0.00 | 0.00 | 0.00 | 60 | 1009.5 |
| 20260505053639 | 18 | 71 | 1.6 | 1.6 | 0.00 | 0.00 | 0.00 | 60 | 1009.8 |
| 20260505053135 | 18 | 46 | 0.0 | 1.6 | 0.00 | 0.00 | 0.00 | 60 | 1009.6 |
| 20260505052632 | 18 | 56 | 1.6 | 1.6 | 0.00 | 0.00 | 0.00 | 60 | 1009.5 |
| 20260505052129 | 18 | 34 | 0.0 | 1.6 | 0.00 | 0.00 | 0.00 | 60 | 1009.6 |
| 20260505051626 | 18 | 47 | 1.6 | 1.6 | 0.00 | 0.00 | 0.00 | 60 | 1009.6 |
| 20260505051124 | 18 | 59 | 0.0 | 1.6 | 0.00 | 0.00 | 0.00 | 61 | 1009.8 |
| 20260505050621 | 18 | 44 | 0.0 | 1.6 | 0.00 | 0.00 | 0.00 | 60 | 1009.5 |
| 20260505050120 | 18 | 51 | 1.6 | 1.6 | 0.00 | 0.00 | 0.00 | 60 | 1009.8 |
| 20260505041549 | 18 | 351 | 1.6 | 3.2 | 0.00 | 0.00 | 0.00 | 58 | 1009.8 |
| 20260505041047 | 18 | 80 | 0.0 | 1.6 | 0.00 | 0.00 | 0.00 | 58 | 1009.8 |
| 20260505040544 | 18 | 356 | 3.2 | 3.2 | 0.00 | 0.00 | 0.00 | 58 | 1009.8 |
| 20260505040041 | 18 | 333 | 3.2 | 3.2 | 0.00 | 0.00 | 0.00 | 59 | 1009.8 |
| 20260505035537 | 18 | 49 | 1.6 | 3.2 | 0.00 | 0.00 | 0.00 | 59 | 1009.8 |
| 20260505035034 | 18 | 51 | 0.0 | 0.0 | 0.00 | 0.00 | 0.00 | 59 | 1009.5 |
| 20260505034530 | 18 | 71 | 0.0 | 1.6 | 0.00 | 0.00 | 0.00 | 58 | 1009.8 |
| 20260505034027 | 19 | 13 | 1.6 | 1.6 | 0.00 | 0.00 | 0.00 | 58 | 1009.9 |
| 20260505033524 | 18 | 191 | 1.6 | 1.6 | 0.00 | 0.00 | 0.00 | 58 | 1009.8 |
| 20260505033023 | 18 | 75 | 1.6 | 1.6 | 0.00 | 0.00 | 0.00 | 58 | 1009.8 |
| 20260505032520 | 19 | 57 | 0.0 | 0.0 | 0.00 | 0.00 | 0.00 | 58 | 1009.8 |
| 20260505032016 | 19 | 50 | 0.0 | 0.0 | 0.00 | 0.00 | 0.00 | 57 | 1009.7 |
| 20260505031514 | 20 | 54 | 0.0 | 0.0 | 0.00 | 0.00 | 0.00 | 56 | 1009.7 |
| 20260505031010 | 20 | 117 | 1.6 | 1.6 | 0.00 | 0.00 | 0.00 | 56 | 1009.4 |
| 20260505030507 | 20 | 64 | 0.0 | 1.6 | 0.00 | 0.00 | 0.00 | 55 | 1009.4 |
| 20260505030002 | 20 | 45 | 1.6 | 3.2 | 0.00 | 0.00 | 0.00 | 56 | 1009.4 |
| 20260505025459 | 19 | 50 | 0.0 | 0.0 | 0.00 | 0.00 | 0.00 | 56 | 1009.2 |
| 20260505024958 | 19 | 35 | 0.0 | 0.0 | 0.00 | 0.00 | 0.00 | 57 | 1009.3 |
| 20260505024454 | 19 | 9 | 1.6 | 3.2 | 0.00 | 0.00 | 0.00 | 56 | 1009.0 |
| 20260505023951 | 19 | 58 | 0.0 | 0.0 | 0.00 | 0.00 | 0.00 | 56 | 1008.8 |
| 20260505023448 | 19 | 48 | 0.0 | 0.0 | 0.00 | 0.00 | 0.00 | 56 | 1009.0 |
| 20260505022946 | 19 | 55 | 0.0 | 0.0 | 0.00 | 0.00 | 0.00 | 57 | 1009.0 |
| 20260505022443 | 18 | 64 | 0.0 | 1.6 | 0.00 | 0.00 | 0.00 | 57 | 1009.0 |
| 20260505021940 | 18 | 65 | 0.0 | 1.6 | 0.00 | 0.00 | 0.00 | 57 | 1008.9 |
| 20260505021437 | 18 | 57 | 0.0 | 0.0 | 0.00 | 0.00 | 0.00 | 56 | 1008.9 |
| 20260505020932 | 19 | 57 | 0.0 | 0.0 | 0.00 | 0.00 | 0.00 | 55 | 1009.0 |
| 20260505020428 | 20 | 55 | 0.0 | 0.0 | 0.00 | 0.00 | 0.00 | 54 | 1008.8 |
| 20260505015925 | 20 | 54 | 0.0 | 0.0 | 0.00 | 0.00 | 0.00 | 53 | 1008.8 |
| 20260505015422 | 20 | 57 | 0.0 | 0.0 | 0.00 | 0.00 | 0.00 | 52 | 1008.6 |
| 20260505014920 | 20 | 50 | 0.0 | 0.0 | 0.00 | 0.00 | 0.00 | 51 | 1008.6 |
| 20260505014416 | 20 | 50 | 0.0 | 0.0 | 0.00 | 0.00 | 0.00 | 50 | 1008.6 |
| 20260505013913 | 20 | 70 | 0.0 | 0.0 | 0.00 | 0.00 | 0.00 | 49 | 1008.5 |
| 20260505013410 | 20 | 54 | 0.0 | 0.0 | 0.00 | 0.00 | 0.00 | 49 | 1008.4 |
| 20260505012908 | 20 | 49 | 0.0 | 0.0 | 0.00 | 0.00 | 0.00 | 50 | 1008.5 |
| 20260505012406 | 20 | 86 | 0.0 | 1.6 | 0.00 | 0.00 | 0.00 | 49 | 1008.5 |
| 20260505011902 | 20 | 41 | 0.0 | 0.0 | 0.00 | 0.00 | 0.00 | 49 | 1008.4 |
| 20260505011359 | 21 | 173 | 0.0 | 3.2 | 0.00 | 0.00 | 0.00 | 48 | 1008.3 |
| 20260505010855 | 21 | 53 | 0.0 | 0.0 | 0.00 | 0.00 | 0.00 | 47 | 1008.5 |
| 20260505010351 | 21 | 60 | 0.0 | 0.0 | 0.00 | 0.00 | 0.00 | 46 | 1008.4 |
| 20260505005847 | 22 | 46 | 0.0 | 0.0 | 0.00 | 0.00 | 0.00 | 45 | 1008.2 |
| 20260505005344 | 22 | 40 | 0.0 | 0.0 | 0.00 | 0.00 | 0.00 | 43 | 1008.3 |
| 20260505004842 | 22 | 67 | 0.0 | 0.0 | 0.00 | 0.00 | 0.00 | 42 | 1008.3 |
| 20260505004338 | 23 | 322 | 3.2 | 3.2 | 0.00 | 0.00 | 0.00 | 41 | 1008.5 |
| 20260505003835 | 23 | 4 | 0.0 | 1.6 | 0.00 | 0.00 | 0.00 | 40 | 1008.4 |
| 20260505003332 | 23 | 352 | 4.8 | 4.8 | 0.00 | 0.00 | 0.00 | 39 | 1008.4 |
| 20260505002828 | 23 | 142 | 1.6 | 3.2 | 0.00 | 0.00 | 0.00 | 39 | 1008.4 |
| 20260505002325 | 24 | 279 | 6.4 | 9.7 | 0.00 | 0.00 | 0.00 | 38 | 1008.5 |
| 20260505001824 | 24 | 334 | 4.8 | 6.4 | 0.00 | 0.00 | 0.00 | 37 | 1008.3 |
| 20260505001320 | 24 | 298 | 4.8 | 4.8 | 0.00 | 0.00 | 0.00 | 37 | 1008.4 |
| 20260505000818 | 24 | 317 | 6.4 | 9.7 | 0.00 | 0.00 | 0.00 | 36 | 1008.3 |
| 20260505000315 | 25 | 206 | 4.8 | 12.9 | 0.00 | 0.00 | 0.00 | 36 | 1008.5 |
| 20260504235812 | 25 | 337 | 6.4 | 6.4 | 0.00 | 0.00 | 0.00 | 36 | 1008.3 |
| 20260504235309 | 25 | 329 | 4.8 | 4.8 | 0.00 | 0.00 | 0.00 | 36 | 1008.3 |
| 20260504234805 | 25 | 311 | 3.2 | 4.8 | 0.00 | 0.00 | 0.00 | 36 | 1008.6 |
| 20260504234303 | 25 | 280 | 9.7 | 11.3 | 0.00 | 0.00 | 0.00 | 35 | 1008.5 |
| 20260504233759 | 25 | 314 | 8.0 | 12.9 | 0.00 | 0.00 | 0.00 | 35 | 1008.4 |
| 20260504233255 | 25 | 246 | 12.9 | 16.1 | 0.00 | 0.00 | 0.00 | 35 | 1008.7 |
| 20260504232752 | 25 | 284 | 19.3 | 24.1 | 0.00 | 0.00 | 0.00 | 33 | 1008.6 |
| 20260504232249 | 25 | 250 | 9.7 | 11.3 | 0.00 | 0.00 | 0.00 | 34 | 1008.7 |
| 20260504231746 | 25 | 305 | 4.8 | 4.8 | 0.00 | 0.00 | 0.00 | 35 | 1008.7 |
| 20260504231242 | 25 | 228 | 8.0 | 12.9 | 0.00 | 0.00 | 0.00 | 35 | 1008.7 |
| 20260504230738 | 26 | 308 | 14.5 | 24.1 | 0.00 | 0.00 | 0.00 | 34 | 1008.9 |
| 20260504230237 | 26 | 39 | 6.4 | 6.4 | 0.00 | 0.00 | 0.00 | 36 | 1008.9 |
| 20260504225735 | 26 | 208 | 4.8 | 6.4 | 0.00 | 0.00 | 0.00 | 35 | 1009.0 |
| 20260504225231 | 26 | 118 | 3.2 | 3.2 | 0.00 | 0.00 | 0.00 | 36 | 1008.8 |
| 20260504224729 | 26 | 143 | 8.0 | 11.3 | 0.00 | 0.00 | 0.00 | 34 | 1009.0 |